Stations météo

réclame
Mon MeteoGroup
Neuburg/Donau, Allemagne (10853): Température de l'air & dewpoint: 04.12.2018 23:00:00 - 10.12.2018 23:00:00 (CET)Neuburg/Donau, Allemagne (10853): Vitesse du vent & gusts: 04.12.2018 23:00:00 - 10.12.2018 23:00:00 (CET)Neuburg/Donau, Allemagne (10853): Direction du vent: 04.12.2018 23:00:00 - 10.12.2018 23:00:00 (CET)Neuburg/Donau, Allemagne (10853): reduced air pressure: 04.12.2018 23:00:00 - 10.12.2018 23:00:00 (CET)Neuburg/Donau, Allemagne (10853): visibility: 04.12.2018 23:00:00 - 10.12.2018 23:00:00 (CET)
Date & Time tt [°C] td [°C] ff [km/h] ff [knt] fx [km/h] fx [knt] dd ppp [hPa] vv [km]
10.12.2018 23:00:00 2,2 -0,1 25 14 - - W 1021,6 30
10.12.2018 22:00:00 2,4 0,2 22 12 - - W 1021,4 25
10.12.2018 21:00:00 2,1 0,9 18 10 54 29 W 1021,4 10
10.12.2018 20:00:00 2,9 0,5 26 14 - - W 1020,8 10
10.12.2018 19:00:00 3,2 0,2 22 12 - - W 1020,5 45
10.12.2018 18:00:00 3,3 0,7 22 12 - - WSW 1020,7 40
10.12.2018 17:00:00 2,9 0,9 22 12 - - W 1021,2 35
10.12.2018 16:00:00 3,9 0,8 22 12 - - W 1021,3 20
10.12.2018 15:00:00 4,6 0,5 25 14 - - W 1020,6 14
10.12.2018 14:00:00 4,5 0,4 25 14 47 25 W 1020,8 18
10.12.2018 13:00:00 4,6 1,1 29 16 - - W 1021,1 20
10.12.2018 12:00:00 4,1 1,0 22 12 - - W 1021,3 45
10.12.2018 11:00:00 3,7 1,6 25 14 - - W 1021,2 30
10.12.2018 10:00:00 3,1 1,3 18 10 - - W 1021,0 30
10.12.2018 09:00:00 2,1 0,9 22 12 - - W 1020,4 30
10.12.2018 08:00:00 1,5 0,6 18 10 - - W 1020,0 15
10.12.2018 07:00:00 1,8 1,0 29 16 - - W 1019,4 6
10.12.2018 06:00:00 3,9 1,8 25 14 - - W 1018,5 30
10.12.2018 05:00:00 4,5 1,6 25 14 - - W 1017,8 30
10.12.2018 04:00:00 4,7 1,7 22 12 - - W 1017,1 30
10.12.2018 03:00:00 5,2 1,6 22 12 50 27 W 1016,6 30
10.12.2018 02:00:00 5,4 2,3 29 16 47 25 W 1015,1 30
10.12.2018 01:00:00 5,7 3,0 29 16 - - W 1014,1 40
10.12.2018 00:00:00 6,0 2,9 32 18 47 25 W 1013,3 45
09.12.2018 23:00:00 5,6 3,2 22 12 - - W 1012,2 45
09.12.2018 22:00:00 5,6 3,4 25 14 - - W 1011,1 45
09.12.2018 21:00:00 6,1 4,8 22 12 - - W 1010,1 25
09.12.2018 20:00:00 5,2 4,3 25 14 - - W 1008,8 12
09.12.2018 19:00:00 5,4 4,2 29 16 - - WSW 1007,6 15
09.12.2018 18:00:00 6,0 3,8 29 16 - - WSW 1006,6 18
09.12.2018 17:00:00 5,8 3,3 36 19 61 33 W 1005,7 18
09.12.2018 16:00:00 6,9 3,6 25 14 - - WSW 1005,2 25
09.12.2018 15:00:00 6,3 3,1 29 16 50 27 WSW 1005,2 30
09.12.2018 14:00:00 6,4 3,7 22 12 47 25 WSW 1005,4 12
09.12.2018 13:00:00 6,0 4,5 25 14 - - WSW 1005,4 12
09.12.2018 12:00:00 7,3 3,2 35 19 61 33 WSW 1005,3 10
09.12.2018 11:00:00 6,8 4,3 18 10 - - SW 1005,5 30
09.12.2018 10:00:00 5,0 3,4 25 14 - - W 1005,5 15
09.12.2018 09:00:00 6,5 3,5 40 21 58 31 W 1004,4 15
09.12.2018 08:00:00 6,9 3,6 25 14 54 29 WSW 1002,8 15
09.12.2018 07:00:00 7,0 3,9 32 18 - - WSW 1002,5 30
09.12.2018 06:00:00 7,2 3,9 40 21 54 29 W 1002,0 50
09.12.2018 05:00:00 7,4 4,3 29 16 54 29 WSW 1002,0 18
09.12.2018 04:00:00 8,4 4,2 29 16 - - WSW 1002,0 50
09.12.2018 03:00:00 8,0 4,6 29 16 58 31 WSW 1002,8 35
09.12.2018 02:00:00 7,9 4,0 32 18 58 31 SW 1003,5 40
09.12.2018 01:00:00 7,8 3,3 32 18 - - SW 1005,2 60
09.12.2018 00:00:00 7,4 3,1 29 16 50 27 SW 1007,1 10
08.12.2018 23:00:00 7,7 2,4 32 18 54 29 WSW 1008,1 60
08.12.2018 22:00:00 7,6 2,1 29 16 - - WSW 1009,3 60
08.12.2018 21:00:00 7,4 2,2 29 16 - - WSW 1010,4 60
08.12.2018 20:00:00 7,2 2,8 25 14 58 31 WSW 1011,3 30
08.12.2018 19:00:00 7,2 2,4 25 14 - - WSW 1011,6 40
08.12.2018 18:00:00 7,1 2,5 25 14 50 27 WSW 1012,3 40
08.12.2018 17:00:00 6,6 2,6 29 16 54 29 WSW 1012,6 20
08.12.2018 16:00:00 7,0 1,9 32 18 - - WSW 1012,5 25
08.12.2018 15:00:00 7,1 1,6 32 18 65 35 WSW 1012,5 15
08.12.2018 14:00:00 7,5 1,1 32 18 61 33 WSW 1012,5 50
08.12.2018 13:00:00 7,4 0,5 36 19 - - WSW 1012,8 60
08.12.2018 12:00:00 7,3 0,7 32 18 61 33 WSW 1013,4 60
08.12.2018 11:00:00 6,9 0,7 32 18 50 27 WSW 1013,7 60
08.12.2018 10:00:00 5,8 0,5 29 16 - - WSW 1014,4 60
08.12.2018 09:00:00 5,6 0,4 29 16 50 27 WSW 1014,9 60
08.12.2018 08:00:00 5,0 0,7 25 14 - - SW 1014,9 50
08.12.2018 07:00:00 4,7 1,1 25 14 - - SW 1014,7 50
08.12.2018 06:00:00 4,7 1,1 14 8 - - WSW 1014,6 50
08.12.2018 05:00:00 5,3 1,7 18 10 50 27 WSW 1013,9 40
08.12.2018 04:00:00 5,3 2,6 22 12 - - WSW 1013,4 50
08.12.2018 03:00:00 6,0 2,9 32 18 61 33 W 1012,4 50
08.12.2018 02:00:00 6,5 2,5 29 16 58 31 W 1011,2 50
08.12.2018 01:00:00 7,0 2,7 32 18 - - W 1009,4 50
08.12.2018 00:00:00 8,0 3,7 36 19 61 33 W 1007,9 50
07.12.2018 23:00:00 9,8 6,4 31 17 - - W 1007,0 5
07.12.2018 22:00:00 9,3 6,7 25 14 - - SW 1007,7 15
07.12.2018 21:00:00 9,0 5,8 11 6 - - SSW 1007,7 35
07.12.2018 20:00:00 8,9 5,3 14 8 - - SW 1008,0 70
07.12.2018 19:00:00 9,7 5,7 14 8 - - WSW 1008,1 70
07.12.2018 18:00:00 9,6 6,5 14 8 - - SW 1008,6 70
07.12.2018 17:00:00 10,4 7,1 11 6 - - SSW 1009,0 70
07.12.2018 16:00:00 11,6 7,0 18 10 - - WSW 1010,5 75
07.12.2018 15:00:00 12,0 7,4 11 6 - - WSW 1011,0 75
07.12.2018 14:00:00 12,6 7,5 18 10 - - WSW 1011,5 75
07.12.2018 13:00:00 11,9 7,4 14 8 - - WSW 1013,2 75
07.12.2018 12:00:00 11,9 7,6 15 8 - - WSW 1014,6 10
07.12.2018 11:00:00 11,8 7,9 14 8 - - WSW 1015,6 40
07.12.2018 10:00:00 10,2 8,6 0 0 - - N 1016,9 35
07.12.2018 09:00:00 10,1 7,7 11 6 - - SW 1017,5 35
07.12.2018 08:00:00 10,3 7,6 11 6 - - SW 1017,9 30
07.12.2018 07:00:00 10,0 7,7 14 8 - - SW 1018,4 30
07.12.2018 06:00:00 9,8 7,6 18 10 - - SW 1018,7 30
07.12.2018 05:00:00 9,8 7,6 14 8 - - SW 1019,1 30
07.12.2018 04:00:00 9,2 7,7 7 4 - - SSW 1019,9 30
07.12.2018 03:00:00 8,8 7,6 4 2 - - SSE 1020,7 30
07.12.2018 02:00:00 8,4 7,6 4 2 - - N 1021,1 30
07.12.2018 01:00:00 8,4 7,6 7 4 - - S 1021,5 30
07.12.2018 00:00:00 9,3 7,6 4 2 - - WSW 1021,7 30
06.12.2018 23:00:00 9,0 7,6 7 4 - - SW 1021,8 30
06.12.2018 22:00:00 8,4 7,5 4 2 - - S 1022,3 25
06.12.2018 21:00:00 8,9 7,6 7 4 - - SW 1022,5 20
06.12.2018 20:00:00 8,8 7,6 7 4 - - W 1022,6 15
06.12.2018 19:00:00 8,0 7,4 4 2 - - SW 1022,7 10
06.12.2018 18:00:00 9,0 7,8 7 4 - - WSW 1022,1 10
06.12.2018 17:00:00 9,1 8,1 7 4 - - WSW 1021,8 7
06.12.2018 16:00:00 9,4 8,4 11 6 - - WSW 1021,4 5
06.12.2018 15:00:00 9,8 8,2 8 4 - - WSW 1021,1 8
06.12.2018 14:00:00 8,0 7,0 4 2 - - W 1021,4 5
06.12.2018 13:00:00 5,7 5,2 4 2 - - S 1021,8 5
06.12.2018 12:00:00 5,0 4,5 4 2 - - N 1022,4 4,0
06.12.2018 11:00:00 3,7 2,8 4 2 - - N 1022,4 5
06.12.2018 10:00:00 3,1 2,3 2 1 - - NNE 1022,2 10
06.12.2018 09:00:00 2,7 1,9 0 0 - - N 1021,8 12
06.12.2018 08:00:00 2,3 1,8 4 2 - - N 1021,4 12
06.12.2018 07:00:00 2,0 1,5 4 2 - - ENE 1021,2 12
06.12.2018 06:00:00 1,9 1,5 4 2 - - NNE 1021,3 12
06.12.2018 05:00:00 1,9 1,4 7 4 - - NNW 1021,3 12
06.12.2018 04:00:00 2,0 0,7 4 2 - - E 1021,6 15
06.12.2018 03:00:00 1,7 0,7 4 2 - - NNE 1022,4 15
06.12.2018 02:00:00 1,6 0,6 0 0 - - N 1022,3 15
06.12.2018 01:00:00 1,5 0,6 7 4 - - NNE 1022,2 20
06.12.2018 00:00:00 1,4 0,5 7 4 - - NE 1022,5 20
05.12.2018 23:00:00 1,1 0,4 7 4 - - NE 1023,1 20
05.12.2018 22:00:00 0,7 0,1 7 4 - - NE 1023,7 20
05.12.2018 21:00:00 1,6 0,8 7 4 - - NE 1024,2 20
05.12.2018 20:00:00 1,9 1,6 7 4 - - NE 1024,8 12
05.12.2018 19:00:00 1,4 1,0 7 4 - - NE 1025,5 7
05.12.2018 18:00:00 2,2 1,7 7 4 - - NE 1025,8 6
05.12.2018 17:00:00 2,6 2,1 7 4 - - ENE 1026,3 6
05.12.2018 16:00:00 3,0 2,1 11 6 - - NE 1026,7 8
05.12.2018 15:00:00 3,4 2,3 7 4 - - ENE 1026,7 8
05.12.2018 14:00:00 3,6 2,5 7 4 - - ENE 1027,3 8
05.12.2018 13:00:00 3,5 2,4 7 4 - - NE 1028,2 8
05.12.2018 12:00:00 3,4 2,6 7 4 - - NE 1028,9 8
05.12.2018 11:00:00 2,4 2,2 7 4 - - NE 1029,7 7
05.12.2018 10:00:00 1,4 1,2 7 4 - - NE 1029,6 5
05.12.2018 09:00:00 0,8 0,6 7 4 - - NE 1029,9 3,2
05.12.2018 08:00:00 0,4 0,2 5 3 - - ENE 1029,8 0,6
05.12.2018 07:00:00 0,4 0,2 7 4 - - NE 1029,5 1,0
05.12.2018 06:00:00 0,4 0,2 4 2 - - NNE 1029,4 0,2
05.12.2018 05:00:00 0,2 0,0 4 2 - - NE 1029,5 0,2
05.12.2018 04:00:00 -0,6 -0,8 4 2 - - E 1029,5 1,5
05.12.2018 03:00:00 -0,7 -0,8 4 2 - - SE 1029,7 1,7
05.12.2018 02:00:00 -0,9 -1,1 4 2 - - NNW 1029,6 2,0
05.12.2018 01:00:00 -0,3 -0,5 0 0 - - N 1029,6 12
05.12.2018 00:00:00 0,1 -0,2 4 2 - - NNE 1029,7 20
04.12.2018 23:00:00 1,7 1,5 4 2 - - NW 1028,7 50

tt = Température de l'air
td = dewpoint
ff = Vitesse du vent
fx = gusts
dd = Direction du vent
ppp = reduced air pressure
vv = visibility

stations d'obs. à proximité